This is the latest recevied weather packets stored in our database for station/object KJ7BRE-1. If no packets are shown the sender has not sent any weather packets the latest 1 day(s).
| Time | Temp. | Humidity | Pressure | Rain* | Wind** | Luminosity | Snow |
|---|---|---|---|---|---|---|---|
| 1778056641 | 15° C | 76% | 1011.5 hPa | 0 mm | 0.45 m/s, 90° | - | - |
| 1778056340 | 15° C | 76% | 1011.5 hPa | 0 mm | 0.45 m/s, 279° | - | - |
| 1778056039 | 15° C | 76% | 1011.9 hPa | 0 mm | 0.45 m/s, 135° | - | - |
| 1778055737 | 15° C | 77% | 1011.5 hPa | 0 mm | 0 m/s | - | - |
| 1778055436 | 15.56° C | 77% | 1011.5 hPa | 0 mm | 0 m/s | - | - |
| 1778055135 | 15.56° C | 77% | 1011.5 hPa | 0 mm | 0.45 m/s, 9° | - | - |
| 1778054834 | 15.56° C | 77% | 1011.5 hPa | 0 mm | 0 m/s | - | - |
| 1778054533 | 15.56° C | 78% | 1011.5 hPa | 0 mm | 0 m/s | - | - |
| 1778054231 | 15.56° C | 77% | 1011.5 hPa | 0 mm | 0 m/s | - | - |
| 1778053930 | 15.56° C | 77% | 1011.2 hPa | 0 mm | 0 m/s | - | - |
| 1778053629 | 15.56° C | 77% | 1011.2 hPa | 0 mm | 0 m/s | - | - |
| 1778053328 | 15.56° C | 77% | 1011.5 hPa | 0 mm | 0 m/s | - | - |
| 1778053026 | 15.56° C | 77% | 1011.2 hPa | 0 mm | 0 m/s | - | - |
| 1778052725 | 15.56° C | 76% | 1011.2 hPa | 0 mm | 0 m/s | - | - |
| 1778052424 | 15.56° C | 76% | 1011.2 hPa | 0 mm | 0 m/s | - | - |
| 1778052123 | 16.11° C | 76% | 1011.2 hPa | 0 mm | 0 m/s | - | - |
| 1778051822 | 16.67° C | 75% | 1011.2 hPa | 0 mm | 0 m/s | - | - |
| 1778051520 | 16.67° C | 75% | 1011.2 hPa | 0 mm | 0 m/s | - | - |
| 1778051219 | 17.22° C | 73% | 1011.2 hPa | 0 mm | 0 m/s | - | - |
| 1778050918 | 17.22° C | 73% | 1011.2 hPa | 0 mm | 0 m/s | - | - |
| 1778050617 | 16.67° C | 79% | 1011.2 hPa | 0 mm | 0 m/s | - | - |
| 1778050315 | 16.67° C | 87% | 1011.2 hPa | 0 mm | 0 m/s | - | - |
| 1778050014 | 15.56° C | 79% | 1010.8 hPa | 0 mm | 0 m/s | - | - |
| 1778049713 | 15.56° C | 79% | 1010.8 hPa | 0 mm | 0 m/s | - | - |
| 1778049412 | 15.56° C | 77% | 1011.2 hPa | 0 mm | 0 m/s | - | - |
* Rain latest hour (hover to see other rain measurements)
** Current wind speed in m/s (hover to see current wind gust speed)